Weather History for Joplin, MO

Change the Weather History Date:

Wednesday, February 5, 2014

  Actual Average Record
Temperature  
Mean Temperature 14 °F 37 °F  
Max Temperature 21 °F 48 °F 69 °F (1963)
Min Temperature 6 °F 27 °F 1 °F (1979)
Degree Days  
Heating Degree Days 51 28  
Month to date heating degree days 210 141  
Since 1 July heating degree days 3142 2690  
Cooling Degree Days 0 0  
Month to date cooling degree days 0 0  
Year to date cooling degree days 0 0  
Moisture  
Dew Point 6 °F    
Average Humidity 79    
Maximum Humidity 92    
Minimum Humidity 66    
Precipitation  
Precipitation T in 0.07 in 1.21 in (1964)
Month to date precipitation 0.17 0.33  
Year to date precipitation 0.76 2.36  
Sea Level Pressure  
Sea Level Pressure 30.45 in    
Wind  
Wind Speed 13 mph (NNW)    
Max Wind Speed 23 mph    
Max Gust Speed 27 mph    
Visibility 8 miles    
Events Snow    
T = Trace of Precipitation, MM = Missing Value Source: NWS Daily Summary

Daily Weather History Graph

Daily Weather History Graph

Search for Another Location

Airport:

Trip Planner

Search our weather history database for the weather conditions in past years. The results will help you decide how hot, cold, wet, or windy it might be!

Date:

Astronomy

Feb. 05, 2014 Rise Set
Actual Time 7:17 AM CST 5:47 PM CST
Civil Twilight 6:50 AM CST 6:14 PM CST
Nautical Twilight 6:19 AM CST 6:45 PM CST
Astronomical Twilight 5:48 AM CST 7:15 PM CST
Moon 10:42 AM CST (2/5) No Moon Set
Length of Visible Light 11h 24m
Length of Day
10h 30m
Waxing Crescent, 39% of the Moon is Illuminated
Feb 5
Waxing Crescent
Feb 6
First Quarter
Feb 14
Full
Feb 22
Last Quarter
Mar 1
New

Hourly Weather History & Observations

Time (CST) Temp. Windchill Dew Point Humidity Pressure Visibility Wind Dir Wind Speed Gust Speed Precip Events Conditions
12:33 AM 19.9 °F 6.2 °F 17.1 °F 89% 30.10 in 5.0 mi North 15.0 mph - 0.00 in Snow Light Snow
12:53 AM 19.9 °F 7.3 °F 17.1 °F 89% 30.14 in 2.5 mi NNW 12.7 mph - 0.00 in Snow Light Snow
1:07 AM 19.0 °F 6.1 °F 16.0 °F 88% 30.12 in 3.0 mi NNW 12.7 mph - 0.00 in Snow Light Snow
1:14 AM 19.0 °F 5.0 °F 16.0 °F 88% 30.13 in 4.0 mi NNW 15.0 mph - 0.00 in Snow Light Snow
1:23 AM 19.0 °F 5.0 °F 15.1 °F 85% 30.13 in 5.0 mi North 15.0 mph - 0.00 in Snow Light Snow
1:53 AM 19.0 °F 6.8 °F 15.1 °F 85% 30.19 in 10.0 mi NNW 11.5 mph - 0.00 in   Overcast
2:53 AM 19.0 °F 3.6 °F 14.0 °F 81% 30.25 in 3.0 mi NNW 18.4 mph - 0.00 in Snow Light Snow
3:02 AM 19.0 °F 4.0 °F 15.1 °F 85% 30.21 in 2.5 mi NNW 17.3 mph - 0.00 in Snow Light Snow
3:23 AM 18.0 °F 4.2 °F 14.0 °F 84% 30.21 in 3.0 mi NNW 13.8 mph - 0.00 in Snow Light Snow
3:53 AM 18.0 °F 3.6 °F 14.0 °F 84% 30.27 in 4.0 mi NNW 15.0 mph - 0.00 in Snow Light Snow
4:53 AM 16.0 °F 0.6 °F 12.0 °F 84% 30.34 in 5.0 mi NNW 16.1 mph 25.3 mph 0.00 in Snow Light Snow
5:53 AM 12.0 °F -4.5 °F 7.0 °F 80% 30.39 in 8.0 mi North 16.1 mph - 0.00 in   Overcast
6:53 AM 8.1 °F -8.4 °F 3.0 °F 80% 30.45 in 10.0 mi NNW 13.8 mph - 0.00 in   Overcast
7:19 AM 7.0 °F -8.3 °F 1.9 °F 80% 30.42 in 10.0 mi NNW 11.5 mph - N/A   Scattered Clouds
7:53 AM 6.1 °F -9.5 °F 1.0 °F 80% 30.49 in 10.0 mi NNW 11.5 mph - N/A   Clear
8:53 AM 7.0 °F -11.6 °F -0.0 °F 73% 30.52 in 10.0 mi North 17.3 mph - N/A   Clear
9:39 AM 7.0 °F -8.3 °F -0.0 °F 73% 30.50 in 10.0 mi NNW 11.5 mph - N/A   Mostly Cloudy
9:53 AM 7.0 °F -10.4 °F -0.0 °F 73% 30.56 in 10.0 mi NNW 15.0 mph - N/A   Overcast
10:20 AM 9.0 °F -6.6 °F 1.0 °F 70% 30.52 in 10.0 mi NNW 12.7 mph - N/A   Scattered Clouds
10:53 AM 9.0 °F -5.1 °F 1.0 °F 70% 30.58 in 10.0 mi WNW 10.4 mph - N/A   Mostly Cloudy
11:53 AM 10.0 °F -4.5 °F 1.9 °F 70% 30.59 in 10.0 mi NW 11.5 mph - 0.00 in   Scattered Clouds
12:53 PM 12.0 °F -3.4 °F 3.0 °F 67% 30.56 in 10.0 mi NNW 13.8 mph - 0.00 in   Scattered Clouds
1:14 PM 12.0 °F -1.3 °F 3.0 °F 67% 30.53 in 10.0 mi NW 10.4 mph - N/A   Mostly Cloudy
1:53 PM 12.9 °F -0.9 °F 3.9 °F 67% 30.57 in 10.0 mi WNW 11.5 mph - N/A   Scattered Clouds
2:17 PM 12.9 °F -0.9 °F 3.9 °F 67% 30.53 in 10.0 mi WNW 11.5 mph - N/A   Mostly Cloudy
2:53 PM 12.9 °F -2.2 °F 3.9 °F 67% 30.58 in 10.0 mi NNW 13.8 mph - N/A   Scattered Clouds
3:53 PM 12.0 °F -2.7 °F 3.9 °F 70% 30.59 in 10.0 mi NW 12.7 mph - N/A   Scattered Clouds
4:53 PM 10.9 °F -3.4 °F 1.9 °F 67% 30.61 in 10.0 mi NW 11.5 mph - N/A   Scattered Clouds
5:53 PM 10.0 °F -4.5 °F 1.0 °F 67% 30.64 in 10.0 mi NNW 11.5 mph - N/A   Clear
6:53 PM 9.0 °F -5.1 °F 1.0 °F 70% 30.67 in 10.0 mi NNW 10.4 mph - N/A   Clear
7:53 PM 9.0 °F -5.1 °F 1.0 °F 70% 30.68 in 10.0 mi NNW 10.4 mph - N/A   Clear
8:53 PM 7.0 °F -8.3 °F -0.9 °F 70% 30.68 in 10.0 mi North 11.5 mph - N/A   Clear
9:53 PM 7.0 °F -7.5 °F -0.9 °F 70% 30.67 in 10.0 mi North 10.4 mph - N/A   Clear
10:53 PM 7.0 °F -7.5 °F -2.0 °F 67% 30.68 in 10.0 mi North 10.4 mph - N/A   Clear
11:53 PM 7.0 °F -4.5 °F -2.0 °F 67% 30.68 in 10.0 mi North 6.9 mph - N/A   Clear